User: anonymous   Login
Location: Bannatyne
(13.0833°N, 59.5333°W)
Time: 03:55:35
(UTC+00:00)
Language:

Courier 1B - Orbit

View from above orbital plane
View from above orbital plane
View from above satellite
View from above satellite

Ground track
Ground track

The orbit data is extracted from the following two-line orbital elements,

1    58U 60013A   20027.50250268  .00000098  00000-0  20398-4 0  9995
2    58  28.3286  94.7816 0165052 334.0647  25.1703 13.46320664920009
Epoch (UTC): 27 January 2020 12:03:36
Eccentricity: 0.0165052
inclination: 28.3286°
perigee height: 962 km
apogee height: 1209 km
right ascension of ascending node: 94.7816°
argument of perigee: 334.0647°
revolutions per day: 13.46320664
mean anomaly at epoch: 25.1703°
orbit number at epoch: 92000

The dashed part of the orbit path shows where the satellite is in the earth's shadow,  

DLR